When you browse on this site, cookies collect data to enhance your experience and personalize the content and advertising you see.
Visit our Privacy Policy to learn more. By continuing to use the site, you agree to this use of cookies and data.

Stündliche Wetter Snizhne

Heute, 25 September, Freitag

Zeit Temperatur Niederschläge Wind Luftdruck Luftfeuchtigkeit
00:00 +14°C° 0 mm 3 m/S 737 mmHg 43%
01:00 +14°C° 0 mm 3 m/S 737 mmHg 44%
02:00 +14°C° 0 mm 3 m/S 737 mmHg 45%
03:00 +13°C° 0 mm 3 m/S 737 mmHg 46%
04:00 +13°C° 0 mm 3 m/S 737 mmHg 49%
05:00 +12°C° 0 mm 3 m/S 737 mmHg 52%
06:00 +12°C° 0 mm 3 m/S 737 mmHg 55%
07:00 +14°C° 0 mm 4 m/S 737 mmHg 50%
08:00 +18°C° 0 mm 4 m/S 737 mmHg 46%
09:00 +20°C° 0 mm 5 m/S 737 mmHg 41%
10:00 +21°C° 0 mm 5 m/S 737 mmHg 38%
11:00 +23°C° 0 mm 6 m/S 737 mmHg 35%
12:00 +24°C° 0 mm 6 m/S 737 mmHg 32%
13:00 +26°C° 0 mm 6 m/S 737 mmHg 32%
14:00 +26°C° 0 mm 5 m/S 736 mmHg 32%
15:00 +27°C° 0 mm 5 m/S 736 mmHg 32%
16:00 +26°C° 0 mm 4 m/S 736 mmHg 33%
17:00 +23°C° 0 mm 4 m/S 735 mmHg 35%
18:00 +22°C° 0 mm 3 m/S 735 mmHg 36%
19:00 +21°C° 0 mm 4 m/S 735 mmHg 38%
20:00 +20°C° 0 mm 4 m/S 735 mmHg 39%
21:00 +19°C° 0 mm 5 m/S 735 mmHg 41%
22:00 +19°C° 0 mm 5 m/S 735 mmHg 41%
23:00 +17°C° 0 mm 5 m/S 735 mmHg 41%

Morgen, 26 September, Samstag

Zeit Temperatur Niederschläge Wind Luftdruck Luftfeuchtigkeit
00:00 +18°C° 0 mm 4 m/S 735 mmHg 41%
01:00 +17°C° 0 mm 4 m/S 734 mmHg 42%
02:00 +17°C° 0 mm 4 m/S 734 mmHg 43%
03:00 +15°C° 0 mm 4 m/S 734 mmHg 44%
04:00 +15°C° 0 mm 5 m/S 734 mmHg 45%
05:00 +15°C° 0 mm 5 m/S 734 mmHg 46%
06:00 +14°C° 0 mm 5 m/S 734 mmHg 47%
07:00 +16°C° 0 mm 6 m/S 734 mmHg 42%
08:00 +19°C° 0 mm 6 m/S 734 mmHg 36%
09:00 +20°C° 0 mm 7 m/S 735 mmHg 31%
10:00 +22°C° 0 mm 7 m/S 735 mmHg 26%
11:00 +24°C° 0 mm 8 m/S 735 mmHg 22%
12:00 +27°C° 0 mm 8 m/S 735 mmHg 17%
13:00 +28°C° 0 mm 8 m/S 735 mmHg 17%
14:00 +29°C° 0 mm 8 m/S 734 mmHg 16%
15:00 +31°C° 0 mm 8 m/S 734 mmHg 16%
16:00 +28°C° 0 mm 7 m/S 734 mmHg 19%
17:00 +27°C° 0 mm 6 m/S 734 mmHg 22%
18:00 +25°C° 0 mm 5 m/S 734 mmHg 24%
19:00 +23°C° 0 mm 6 m/S 734 mmHg 28%
20:00 +22°C° 0 mm 6 m/S 734 mmHg 31%
21:00 +21°C° 0 mm 7 m/S 735 mmHg 35%
22:00 +21°C° 0 mm 7 m/S 735 mmHg 36%
23:00 +20°C° 0 mm 7 m/S 735 mmHg 37%

übermorgen, 27 September, Sonntag

Zeit Temperatur Niederschläge Wind Luftdruck Luftfeuchtigkeit
00:00 +20°C° 0 mm 7 m/S 735 mmHg 38%
01:00 +18°C° 0 mm 7 m/S 735 mmHg 39%
02:00 +17°C° 0 mm 7 m/S 735 mmHg 40%
03:00 +16°C° 0 mm 7 m/S 735 mmHg 42%
04:00 +15°C° 0 mm 7 m/S 735 mmHg 44%
05:00 +15°C° 0 mm 7 m/S 736 mmHg 46%
06:00 +14°C° 0 mm 7 m/S 736 mmHg 47%
07:00 +15°C° 0 mm 7 m/S 736 mmHg 46%
08:00 +16°C° 0 mm 8 m/S 736 mmHg 45%
09:00 +17°C° 0 mm 8 m/S 736 mmHg 44%
10:00 +20°C° 0 mm 8 m/S 736 mmHg 40%
11:00 +22°C° 0 mm 9 m/S 736 mmHg 36%
12:00 +24°C° 0 mm 9 m/S 737 mmHg 32%
13:00 +26°C° 0 mm 9 m/S 737 mmHg 30%
14:00 +27°C° 0 mm 8 m/S 737 mmHg 29%
15:00 +28°C° 0 mm 8 m/S 737 mmHg 27%
16:00 +27°C° 0 mm 7 m/S 737 mmHg 29%
17:00 +26°C° 0 mm 7 m/S 737 mmHg 31%
18:00 +26°C° 0 mm 6 m/S 737 mmHg 33%
19:00 +24°C° 0 mm 7 m/S 737 mmHg 34%
20:00 +23°C° 0 mm 7 m/S 737 mmHg 35%
21:00 +22°C° 0 mm 8 m/S 737 mmHg 36%
22:00 +21°C° 0.1 mm 8 m/S 737 mmHg 39%
23:00 +20°C° 0.1 mm 7 m/S 737 mmHg 42%

28 September, Montag

Zeit Temperatur Niederschläge Wind Luftdruck Luftfeuchtigkeit
00:00 +18°C° 0.1 mm 7 m/S 737 mmHg 45%
01:00 +18°C° 0.2 mm 7 m/S 737 mmHg 48%
02:00 +17°C° 0.2 mm 7 m/S 738 mmHg 52%
03:00 +16°C° 0.2 mm 6 m/S 738 mmHg 56%
04:00 +15°C° 0 mm 6 m/S 738 mmHg 58%
05:00 +15°C° 0 mm 6 m/S 738 mmHg 61%
06:00 +14°C° 0 mm 6 m/S 738 mmHg 64%
07:00 +15°C° 0.1 mm 6 m/S 738 mmHg 61%
08:00 +15°C° 0.1 mm 6 m/S 738 mmHg 58%
09:00 +16°C° 0.1 mm 7 m/S 739 mmHg 55%
10:00 +19°C° 0.1 mm 6 m/S 739 mmHg 51%
11:00 +21°C° 0.1 mm 6 m/S 739 mmHg 47%
12:00 +22°C° 0.1 mm 6 m/S 739 mmHg 43%
13:00 +23°C° 0.1 mm 5 m/S 739 mmHg 41%
14:00 +25°C° 0.1 mm 5 m/S 739 mmHg 39%
15:00 +26°C° 0.1 mm 5 m/S 739 mmHg 36%
16:00 +26°C° 0.1 mm 4 m/S 739 mmHg 38%
17:00 +25°C° 0.1 mm 4 m/S 739 mmHg 40%
18:00 +24°C° 0.1 mm 3 m/S 739 mmHg 42%
19:00 +22°C° 0 mm 4 m/S 739 mmHg 41%
20:00 +22°C° 0 mm 5 m/S 739 mmHg 41%
21:00 +21°C° 0 mm 5 m/S 739 mmHg 40%
22:00 +21°C° 0 mm 5 m/S 739 mmHg 41%
23:00 +20°C° 0 mm 6 m/S 739 mmHg 42%

29 September, Dienstag

Zeit Temperatur Niederschläge Wind Luftdruck Luftfeuchtigkeit
00:00 +20°C° 0 mm 6 m/S 738 mmHg 43%
01:00 +19°C° 0 mm 6 m/S 738 mmHg 48%
02:00 +17°C° 0 mm 6 m/S 738 mmHg 53%
03:00 +16°C° 0 mm 5 m/S 738 mmHg 58%
04:00 +15°C° 0.2 mm 5 m/S 738 mmHg 63%
05:00 +15°C° 0.2 mm 5 m/S 738 mmHg 68%
06:00 +14°C° 0.2 mm 5 m/S 738 mmHg 73%
07:00 +14°C° 0.2 mm 6 m/S 738 mmHg 70%
08:00 +15°C° 0.2 mm 7 m/S 738 mmHg 67%
09:00 +16°C° 0.2 mm 7 m/S 738 mmHg 64%
10:00 +17°C° 0 mm 7 m/S 737 mmHg 58%
11:00 +18°C° 0 mm 8 m/S 737 mmHg 52%
12:00 +20°C° 0 mm 8 m/S 737 mmHg 47%
13:00 +21°C° 0 mm 8 m/S 736 mmHg 44%
14:00 +22°C° 0 mm 8 m/S 736 mmHg 41%
15:00 +23°C° 0 mm 8 m/S 736 mmHg 39%
16:00 +23°C° 0 mm 7 m/S 735 mmHg 38%
17:00 +22°C° 0 mm 6 m/S 735 mmHg 38%
18:00 +22°C° 0 mm 6 m/S 734 mmHg 38%
19:00 +22°C° 0 mm 6 m/S 734 mmHg 38%
20:00 +21°C° 0 mm 7 m/S 734 mmHg 38%
21:00 +21°C° 0 mm 8 m/S 734 mmHg 38%
22:00 +20°C° 0 mm 8 m/S 733 mmHg 40%
23:00 +18°C° 0 mm 9 m/S 733 mmHg 41%

30 September, Mittwoch

Zeit Temperatur Niederschläge Wind Luftdruck Luftfeuchtigkeit
00:00 +17°C° 0 mm 10 m/S 733 mmHg 43%
01:00 +17°C° 0 mm 9 m/S 732 mmHg 46%
02:00 +16°C° 0 mm 9 m/S 732 mmHg 48%
03:00 +15°C° 0 mm 8 m/S 732 mmHg 51%
04:00 +15°C° 0.1 mm 8 m/S 732 mmHg 55%
05:00 +13°C° 0.1 mm 9 m/S 731 mmHg 59%
06:00 +13°C° 0.1 mm 9 m/S 731 mmHg 63%
07:00 +13°C° 0.5 mm 9 m/S 731 mmHg 65%
08:00 +13°C° 0.5 mm 9 m/S 731 mmHg 67%
09:00 +13°C° 0.5 mm 9 m/S 731 mmHg 69%
10:00 +13°C° 1.3 mm 9 m/S 731 mmHg 74%
11:00 +12°C° 1.3 mm 9 m/S 731 mmHg 78%
12:00 +12°C° 1.3 mm 9 m/S 731 mmHg 82%
13:00 +13°C° 0.3 mm 9 m/S 731 mmHg 80%
14:00 +13°C° 0.3 mm 8 m/S 731 mmHg 77%
15:00 +15°C° 0.3 mm 8 m/S 731 mmHg 75%
16:00 +16°C° 0 mm 8 m/S 731 mmHg 71%
17:00 +16°C° 0 mm 7 m/S 731 mmHg 67%
18:00 +17°C° 0 mm 6 m/S 731 mmHg 63%
19:00 +16°C° 0.1 mm 7 m/S 731 mmHg 67%
20:00 +16°C° 0.1 mm 7 m/S 731 mmHg 71%
21:00 +16°C° 0.1 mm 7 m/S 731 mmHg 75%
22:00 +15°C° 0.3 mm 7 m/S 732 mmHg 74%
23:00 +15°C° 0.3 mm 7 m/S 732 mmHg 74%
Mehr zeigen